STARLINK-32274 (60922 NORAD) Tracking and Keplerian Element Data

This shows tracking and keplerian element data for the satellite.

Feedback or suggestion? Click here.




ElementValue
Catalog60922
NameSTARLINK-32274
Epoch Orbit782
Epoch Day286.83715698
Epoch Year2024
RAAN146.071
Inclination53.1607
Eccentricity9.76E-05
Argument of Perigee52.6543
Mean Anonmoly307.4546
Mean Motion15.30190246
Decay Rate-3.79E-06
L11 60922U 24154V 24286.83715698 -.00000379 00000+0 -67349-6 0 9999
L22 60922 53.1607 146.0710 0000976 52.6543 307.4546 15.30190246 7826



Live tracking and technical data element details for STARLINK-32274 (NORAD 60922). STARLINK-32274 can be tracked NOW for your location showing map with azimuth and elevation plus other details from your city location.







IsCatalogInMostPopularTable: catalog: 60922, numindb: 8
Update: records affected: 1



GetName: 60922 STARLINK-32274

Hit Count: updated at: Wed, 04 Dec 2024 18:47:56 GMT